This demonstration page uses our WeatherBlox Daily Observations layout. Learn more.

41.55636, -103.73856

Hourly Observations for July 5, 2016

Temp ( °F °C ) Dew Point ( °F °C ) Humidity (%) Winds ( mph kmh ) Pressure ( in mb ) Visibility ( mi km ) Precip ( " mm )
12:53 am 00:53 Clear 72 22.2 48 8.9 43 43 SSE 7 11 29.71 1006 10 16.0934 0 0
1:53 am 01:53 Clear 72 22.2 48 8.9 43 43 S 5 7 29.71 1006 10 16.0934 0 0
2:53 am 02:53 Partly Cloudy with Light Rain 73 22.8 48 8.9 41 41 Calm 29.71 1006 10 16.0934 0 0.0254
3:53 am 03:53 Mostly Clear 69 20.6 52 11.1 55 55 W 5 7 29.71 1006 10 16.0934 0 0.0254
4:53 am 04:53 Clear 66 18.9 53 11.7 63 63 Calm 29.71 1006 10 16.0934 0 0
5:53 am 05:53 Sunny 71 21.7 47 8.3 42 42 undefined N/A 29.7 1006 10 16.0934 0 0
6:53 am 06:53 Mostly Sunny 69 20.6 55 12.8 61 61 N 5 7 29.71 1006 10 16.0934 0 0
7:53 am 07:53 Mostly Cloudy 74 23.3 50 10 43 43 VRB 5 7 29.72 1006 10 16.0934 0 0
8:53 am 08:53 Partly Cloudy 79 26.1 48 8.9 34 34 WNW 22 35 29.76 1008 10 16.0934 0 0
9:53 am 09:53 Mostly Sunny 84 28.9 46 7.8 27 27 N 13 20 29.74 1007 10 16.0934 0 0
10:53 am 10:53 Sunny 89 31.7 47 8.3 23 23 NW 8 13 29.72 1007 10 16.0934 0 0
11:53 am 11:53 Sunny 90 32.2 45 7.2 21 21 NW 13 20 29.73 1007 10 16.0934 0 0
12:53 pm 12:53 Sunny 92 33.3 48 8.9 22 22 NNW 10 17 29.73 1007 10 16.0934 0 0
1:53 pm 13:53 Sunny 93 33.9 47 8.3 21 21 VRB 6 9 29.7 1006 10 16.0934 0 0
2:53 pm 14:53 Sunny 94 34.4 47 8.3 20 20 ENE 9 15 29.7 1006 10 16.0934 0 0
3:53 pm 15:53 Sunny 89 31.7 53 11.7 29 29 E 12 19 29.7 1006 10 16.0934 0 0
4:18 pm 16:18 Partly Cloudy with Thunderstorms 84 29 55 13 37 37 SE 16 26 29.59 1002 10 16.0934 0 0
4:35 pm 16:35 Mostly Cloudy with Heavy Thunderstorms 73 22.8 59 15 62 62 S 22 35 29.71 1006 2.5 4.02335 0.06 1.524
4:46 pm 16:46 Cloudy with Heavy Thunderstorms 72 22 57 14 61 61 SW 12 19 29.71 1006 4 6.43736 0 0
4:53 pm 16:53 Cloudy with Light Thunderstorms 71 21.7 56 13.3 59 59 NE 5 7 29.8 1009 4 6.43736 0.19 4.826
5:40 pm 17:40 Cloudy with Nearby Thunderstorms 70 21 59 15 69 69 E 13 20 29.77 1008 10 16.0934 0 0
5:53 pm 17:53 Cloudy with Light Thunderstorms 69 20.6 60 15.6 73 73 ESE 16 26 29.82 1010 10 16.0934 0.06 1.524
6:06 pm 18:06 Cloudy with Nearby Thunderstorms 70 21.1 58 14.4 66 66 ESE 16 26 29.74 1007 10 16.0934 0 0.0254
6:14 pm 18:14 Mostly Cloudy with Light Rain 68 20 59 15 73 73 E 13 20 29.74 1007 10 16.0934 0 0
6:53 pm 18:53 Mostly Cloudy with Light Rain 68 20 60 15.6 76 76 S 9 15 29.85 1011 10 16.0934 0 0.0254
7:22 pm 19:22 Sunny 68 20 57 14 69 69 ESE 13 20 29.71 1006 10 16.0934 0 0
7:53 pm 19:53 Sunny 69 20.6 57 13.9 66 66 E 8 13 29.77 1008 10 16.0934 0 0.0254
8:53 pm 20:53 Clear 66 18.9 57 13.9 73 73 E 5 7 29.76 1008 10 16.0934 0 0
9:53 pm 21:53 Clear 65 18.3 57 13.9 76 76 SE 10 17 29.78 1009 10 16.0934 0 0
10:53 pm 22:53 Clear 65 18.3 57 13.9 76 76 Calm 29.79 1009 10 16.0934 0 0
11:53 pm 23:53 Clear 64 17.8 57 13.9 78 78 E 6 9 29.78 1008 10 16.0934 0 0

Powered by AerisWeather